Location: Albert Place
(40.7505°N, 111.9230°W)
Time: 22:57:44
(UTC+00:00)

BREEZE-M DEB (TANK) - Pass Details

Date: 13 December 2025
Orbit: 322 x 14419 km, 49.6° (Epoch: 14 January)

Event Time Altitude Azimuth Distance (km) Brightness Sun altitude
Exits shadow 13:38:57 14° 328° (NNW) 1,316 4.5 -11.9°
Maximum altitude 13:40:54 24° 20° (NNE) 1,197 4.7 -11.5°
Drops below altitude 10° 13:45:38 10° 75° (ENE) 2,976 7.6 -10.7°
Sets 13:51:08 0° 86° (E) 5,425 9.4 -9.7°
